Terug naar catalogus

SL-14 R/B

ActiefPO
NORAD 18422·ROCKET BODY·🇷🇺 Russia

Gelanceerd Oct 20, 1987 vanaf Plesetsk Cosmodrome

Loading…

Volgende Passages (komende 24 uur)

TLE

VersSource: Space-Track

Epoch: Sep 14, 2026, 22:20 UTC

1 18422U 87088B   26257.93092394  .00000308  00000-0  32781-4 0  9995
2 18422  82.5076 249.1467 0020224 104.1220 256.2245 14.85460404 81393

Volg SL-14 R/B in realtime met AllMySat

Download on the App Store